Wind_Speed
88 88 84 79 86 87 94 106 117 125 125 132 127 120 121 121 112 109 102 101 100 82 45 61 95 102 92 84 81 82 79 72 68 58 64 64 66 71 70 69 68 67 69 69
80 76 82 85 88 90 91 104 109 123 124 129 130 122 123 124 113 109 107 103 98 104 53 42 96 93 98 95 87 84 83 80 79 78 75 81 83 80 73 73 74 71 76 79
71 77 80 81 87 85 86 98 103 116 123 128 128 128 126 126 116 112 112 104 94 83 61 89 67 70 88 110 97 89 86 84 83 83 84 89 89 85 78 79 84 82 80 82
60 69 76 78 74 73 77 87 98 108 118 127 126 130 130 129 117 118 108 107 99 84 82 117 89 84 84 100 97 91 92 89 85 83 83 86 88 90 86 89 88 89 86 86
60 63 64 60 58 65 70 83 93 99 108 121 125 127 130 128 120 117 104 104 91 88 69 57 98 104 88 77 87 88 90 85 81 84 87 87 88 87 86 87 87 88 88 87
48 51 53 56 61 65 71 80 85 92 103 116 124 124 130 131 120 121 108 104 105 114 103 80 84 98 100 82 72 84 90 90 91 90 89 88 88 86 86 86 88 87 88 90
36 44 49 52 56 67 73 77 83 93 101 105 115 125 124 128 121 118 112 96 98 107 111 103 90 86 100 108 106 107 96 94 95 91 91 92 93 93 94 92 93 93 93 96
37 41 43 47 52 56 62 66 75 82 89 98 112 117 122 125 126 117 116 108 118 123 116 100 104 117 91 83 86 95 105 101 99 96 95 94 94 96 97 97 96 96 95 98
36 38 41 45 51 56 60 62 65 72 83 89 95 107 110 118 123 120 122 123 113 119 123 112 123 103 91 82 82 87 96 103 103 102 99 97 100 100 100 100 101 102 103 102
20 28 36 39 45 50 53 61 67 73 83 84 94 99 101 112 115 121 122 121 122 111 112 126 121 126 121 117 113 111 110 108 107 107 106 105 106 105 105 106 106 107 109 111
21 25 29 31 34 41 49 62 68 69 73 78 82 87 97 107 111 117 121 120 120 129 121 112 117 124 127 124 114 113 112 108 107 107 106 108 109 108 109 109 109 111 113 114
23 24 28 32 34 39 43 49 56 66 64 74 79 88 99 107 110 110 113 120 122 115 122 123 119 120 116 116 109 103 108 109 108 106 107 107 108 109 108 109 110 112 115 116
16 26 26 25 29 32 38 42 50 52 61 67 70 77 85 93 101 100 105 113 118 117 119 121 121 122 113 104 101 104 104 106 107 107 106 108 110 110 109 110 110 112 114 116
19 21 24 25 26 29 33 39 45 48 44 53 68 69 75 87 88 91 96 100 106 109 111 117 119 120 116 111 113 110 105 103 103 102 103 107 106 105 106 109 113 117 121 123
19 17 17 19 20 25 30 34 41 50 59 58 56 59 72 75 69 78 85 93 96 100 109 112 113 113 111 109 113 116 118 118 119 115 117 117 117 117 118 117 117 119 121 122
17 16 11 13 15 19 25 31 37 44 52 54 52 48 48 52 58 66 74 79 84 86 68 83 98 108 110 109 100 91 110 110 95 106 112 112 116 117 116 117 118 117 119 121
15 15 15 17 16 16 18 23 31 38 42 44 45 42 43 43 55 57 63 70 75 79 89 77 72 71 93 106 108 109 109 108 108 109 110 110 112 113 113 111 112 114 115 114
24 25 8 19 18 16 18 21 24 28 32 35 26 27 23 31 40 53 56 63 67 71 80 89 96 92 94 97 100 100 102 103 103 103 104 106 106 106 107 107 106 106 105 101
26 28 11 20 19 16 21 21 24 27 25 19 19 23 44 39 45 51 49 51 59 67 74 77 83 87 89 90 91 94 97 99 101 102 102 100 97 97 98 98 97 96 95 91
31 28 5 21 27 17 18 31 31 30 24 24 26 34 41 45 49 54 54 54 55 62 63 66 69 72 76 78 83 85 86 89 88 88 89 89 90 89 89 88 85 85 82 80
27 26 29 34 32 23 15 13 28 26 23 25 18 24 41 50 51 50 52 51 51 49 52 53 57 60 56 63 73 78 78 75 76 77 78 79 78 76 76 74 72 70 65 58
23 24 22 27 37 23 13 16 23 28 33 35 40 29 40 47 60 60 61 52 41 40 42 44 48 50 57 61 65 61 55 57 60 61 59 58 57 55 52 50 48 46 47 48
24 27 25 25 25 16 8 19 24 33 38 34 34 41 37 34 37 42 46 46 43 39 38 42 44 47 56 60 51 37 38 40 39 37 37 37 37 38 40 41 44 46 49 50
27 27 26 26 29 34 34 28 25 29 38 38 37 37 27 25 27 30 34 33 30 40 41 40 41 43 46 50 51 46 34 26 28 31 34 37 39 41 43 46 49 52 55 55
26 20 24 24 29 36 30 27 26 32 34 33 32 29 20 14 13 16 19 21 25 29 32 40 37 34 29 27 28 28 29 32 34 36 39 41 43 46 49 52 56 59 62 64
35 28 29 8 28 31 29 29 29 31 32 29 28 24 22 21 19 19 19 19 19 20 21 22 24 26 27 27 29 31 32 34 36 40 43 46 51 54 56 59 60 64 69 72
Wind_Direction
223 222 220 219 221 219 217 216 215 212 213 214 214 211 214 215 216 218 208 214 218 220 229 228 241 244 248 245 245 247 248 249 245 257 251 251 254 266 267 269 269 270 272 275
221 220 218 218 219 219 217 215 215 213 211 214 215 211 214 216 213 219 215 213 219 221 236 264 260 243 247 246 241 244 246 246 241 249 250 249 261 263 267 266 266 266 270 272
212 214 216 216 217 219 216 214 213 215 212 214 214 211 213 217 211 213 218 210 215 222 229 228 240 259 252 246 243 243 244 244 246 247 247 249 254 258 260 262 265 268 270 272
206 211 214 217 219 218 215 213 213 215 213 214 213 212 213 216 210 213 216 214 211 215 226 227 221 232 248 242 240 243 244 243 245 247 250 254 258 259 259 260 263 269 272 273
205 210 214 216 215 213 211 211 212 215 213 214 213 215 213 216 213 213 211 217 204 210 218 221 238 235 239 241 242 238 243 245 248 250 251 253 258 263 266 266 268 270 273 276
205 205 206 206 207 206 208 210 211 212 214 215 213 215 214 214 212 213 208 213 208 216 216 227 229 231 234 235 235 236 241 248 250 251 254 256 259 262 265 267 269 272 274 275
201 201 202 200 206 204 205 207 209 209 212 214 215 214 216 214 212 213 210 210 207 206 216 227 223 228 230 237 244 246 250 253 254 254 257 260 262 265 267 269 271 273 277 279
191 194 196 198 199 209 211 210 215 213 216 213 216 214 213 214 212 211 210 205 213 216 225 228 229 232 238 240 242 243 245 251 254 255 257 259 263 265 267 270 272 274 276 278
198 199 199 200 203 205 210 209 211 211 217 216 219 219 212 218 216 213 213 212 210 220 226 234 233 237 235 235 236 245 251 254 256 258 259 261 263 266 268 270 272 274 275 278
211 211 201 203 207 208 207 207 207 209 214 214 219 218 215 218 219 216 214 215 217 215 223 229 231 237 242 245 249 253 256 257 258 260 262 263 265 268 270 272 274 276 278 279
207 205 213 213 209 208 209 216 207 209 211 214 217 219 216 217 220 218 216 216 218 219 221 227 234 236 238 242 248 252 253 255 257 259 261 264 266 269 271 273 276 278 279 281
200 199 202 205 205 206 204 209 211 212 211 213 213 218 215 218 217 220 220 218 220 223 224 227 230 234 239 243 247 251 255 256 258 261 263 265 266 269 271 273 276 277 280 283
185 194 198 204 204 206 205 207 200 202 214 216 217 222 220 224 222 219 222 223 222 224 226 229 232 236 236 237 240 245 250 254 258 262 265 266 268 271 272 274 276 277 279 281
162 171 177 181 193 199 199 201 194 200 201 224 225 219 227 227 224 225 224 227 227 227 231 232 233 237 239 242 243 243 246 252 255 258 260 263 265 268 269 272 274 275 277 280
138 147 164 173 185 191 195 195 193 197 206 203 225 221 229 231 226 229 230 229 229 231 234 237 239 240 241 242 247 249 251 252 256 258 262 264 265 268 271 273 275 277 278 280
128 126 140 157 178 189 192 195 195 202 210 217 226 232 232 237 235 234 235 235 232 233 248 251 245 245 246 245 245 251 252 256 258 258 263 266 267 271 273 274 276 277 279 281
132 142 153 158 162 173 183 197 203 208 212 220 223 226 229 231 222 242 235 237 236 235 225 234 237 242 246 248 249 251 253 255 260 262 265 267 268 271 273 276 277 278 280 282
163 143 176 165 164 171 178 185 193 208 217 223 221 230 231 255 236 239 243 243 239 236 239 239 244 250 251 251 253 255 258 260 264 266 268 269 271 273 275 277 279 280 283 285
169 141 186 192 186 187 190 191 194 208 211 213 202 178 193 217 242 246 248 250 246 241 239 241 245 249 252 254 256 258 261 262 264 266 269 271 272 273 275 278 280 282 284 286
157 147 314 201 191 209 200 209 203 208 201 205 211 204 208 219 233 248 248 248 253 252 251 249 250 253 256 258 259 260 260 262 266 268 269 271 273 275 276 278 280 280 282 284
181 186 183 169 152 215 193 205 200 204 179 172 190 238 227 229 238 239 245 253 261 258 254 254 255 256 255 261 260 259 261 264 265 266 268 270 272 273 274 275 278 282 285 288
194 196 194 174 166 175 203 175 181 170 165 168 186 224 232 236 239 244 256 259 257 253 250 246 242 235 237 246 256 267 264 264 264 265 268 270 271 274 276 281 284 286 286 286
204 210 210 196 191 161 297 216 197 184 175 194 204 209 236 250 253 250 251 254 257 248 236 231 230 232 230 246 260 258 264 266 269 270 272 275 275 277 279 280 281 284 285 289
212 208 206 202 192 199 207 212 206 196 199 217 229 243 254 257 254 248 241 235 220 206 207 218 227 234 240 246 254 262 263 267 267 267 270 273 276 278 282 286 289 290 290 291
199 204 207 212 209 208 215 214 203 208 214 215 227 237 238 239 220 212 210 207 206 207 216 224 235 242 248 245 244 251 260 264 270 275 277 282 287 289 290 288 289 290 291 292
182 187 185 137 270 217 216 220 218 217 218 215 217 219 210 207 204 199 201 205 213 220 227 230 232 236 243 253 260 266 271 277 284 287 288 287 286 287 290 292 293 294 296 297
Height
10491 10503 10528 10550 10555 10570 10579 10594 10616 10641 10664 10676 10701 10733 10744 10753 10787 10803 10833 10856 10849 10860 10872 10879 10885 10888 10884 10877 10880 10883 10891 10890 10889 10890 10888 10891 10890 10895 10900 10900 10901 10902 10901 10902
10475 10501 10513 10522 10534 10546 10561 10578 10601 10620 10645 10659 10685 10714 10724 10736 10777 10796 10819 10834 10841 10858 10881 10884 10836 10842 10859 10859 10863 10871 10877 10880 10881 10880 10882 10881 10881 10884 10891 10887 10887 10889 10890 10889
10466 10479 10491 10507 10520 10532 10547 10565 10589 10605 10629 10639 10666 10689 10702 10718 10758 10778 10787 10825 10838 10851 10876 10880 10853 10832 10835 10840 10846 10856 10861 10865 10867 10869 10871 10870 10872 10875 10880 10877 10875 10879 10879 10877
10460 10471 10484 10497 10512 10525 10539 10556 10576 10587 10606 10621 10644 10666 10681 10697 10743 10750 10780 10802 10824 10850 10853 10855 10844 10811 10823 10825 10829 10835 10844 10850 10852 10857 10858 10858 10861 10860 10866 10864 10866 10864 10865 10865
10450 10465 10480 10497 10512 10519 10536 10546 10562 10579 10593 10609 10627 10647 10670 10686 10726 10744 10776 10791 10813 10811 10817 10824 10806 10805 10812 10814 10820 10821 10828 10837 10838 10841 10844 10846 10848 10850 10851 10852 10853 10853 10851 10850
10454 10463 10475 10486 10496 10512 10524 10535 10552 10568 10579 10585 10612 10630 10649 10668 10713 10728 10762 10766 10789 10788 10794 10788 10780 10792 10799 10801 10802 10809 10817 10823 10822 10828 10833 10835 10838 10840 10838 10839 10839 10839 10837 10836
10460 10469 10474 10484 10498 10503 10511 10527 10538 10548 10556 10583 10602 10614 10638 10668 10701 10720 10748 10757 10770 10767 10760 10764 10768 10778 10782 10787 10789 10801 10808 10809 10806 10820 10823 10822 10824 10825 10825 10825 10824 10826 10826 10818
10458 10468 10478 10489 10499 10510 10519 10532 10540 10555 10567 10578 10584 10603 10625 10648 10681 10708 10723 10733 10740 10749 10746 10746 10758 10772 10772 10782 10787 10786 10790 10793 10799 10806 10809 10810 10812 10810 10809 10809 10810 10811 10810 10806
10461 10468 10476 10484 10492 10502 10509 10525 10542 10555 10560 10577 10591 10604 10632 10641 10668 10696 10704 10711 10720 10734 10743 10751 10746 10753 10764 10770 10771 10775 10781 10788 10793 10794 10796 10798 10795 10794 10795 10796 10794 10793 10793 10791
10464 10470 10474 10481 10488 10500 10511 10514 10524 10536 10547 10568 10575 10596 10628 10631 10652 10678 10694 10712 10723 10731 10736 10728 10735 10739 10752 10760 10763 10766 10772 10778 10779 10779 10780 10781 10779 10781 10781 10781 10778 10776 10771 10768
10462 10469 10474 10483 10490 10497 10501 10505 10515 10533 10546 10558 10574 10592 10609 10615 10632 10652 10680 10697 10706 10707 10721 10726 10730 10728 10737 10751 10760 10757 10756 10764 10762 10762 10765 10763 10765 10768 10766 10765 10764 10760 10755 10750
10461 10467 10472 10477 10482 10489 10497 10505 10519 10531 10548 10549 10563 10570 10580 10590 10619 10638 10662 10677 10683 10707 10710 10708 10709 10706 10741 10752 10759 10746 10740 10747 10747 10750 10750 10752 10751 10750 10753 10751 10747 10742 10737 10733
10462 10466 10473 10479 10484 10491 10499 10508 10521 10536 10543 10556 10564 10577 10586 10600 10610 10636 10643 10655 10673 10684 10688 10694 10695 10692 10722 10740 10742 10731 10727 10731 10735 10736 10737 10735 10733 10737 10738 10734 10729 10723 10718 10714
10463 10468 10472 10477 10482 10490 10499 10510 10526 10538 10550 10558 10562 10574 10583 10590 10611 10627 10643 10655 10667 10681 10675 10676 10686 10694 10714 10717 10717 10717 10716 10722 10716 10720 10722 10715 10720 10721 10718 10716 10710 10704 10700 10696
10467 10471 10477 10482 10487 10493 10502 10512 10526 10539 10543 10544 10555 10573 10573 10588 10616 10622 10632 10640 10661 10667 10669 10677 10684 10692 10695 10701 10698 10705 10704 10699 10694 10709 10702 10699 10701 10702 10701 10697 10692 10686 10680 10675
10475 10478 10485 10489 10495 10500 10507 10515 10525 10535 10544 10551 10558 10570 10586 10595 10606 10609 10619 10634 10646 10657 10680 10669 10673 10671 10671 10685 10686 10681 10672 10681 10684 10692 10687 10685 10683 10685 10683 10676 10671 10664 10660 10655
10482 10487 10491 10496 10503 10508 10514 10520 10526 10533 10542 10551 10561 10572 10584 10595 10596 10600 10609 10617 10630 10641 10652 10645 10645 10647 10654 10662 10667 10662 10658 10667 10668 10672 10671 10668 10666 10667 10662 10656 10649 10643 10640 10636
10486 10491 10495 10503 10507 10514 10519 10524 10531 10535 10542 10550 10569 10576 10587 10581 10589 10594 10599 10606 10614 10621 10623 10631 10632 10636 10642 10645 10649 10651 10652 10654 10650 10650 10648 10648 10647 10644 10639 10634 10629 10624 10619 10615
10491 10493 10505 10508 10512 10517 10520 10527 10531 10533 10542 10553 10567 10578 10593 10570 10577 10582 10586 10591 10598 10605 10613 10618 10623 10628 10630 10631 10632 10630 10633 10633 10632 10631 10632 10631 10626 10621 10619 10616 10610 10607 10602 10597
10489 10492 10496 10505 10511 10514 10518 10521 10524 10529 10548 10553 10556 10567 10567 10570 10568 10572 10576 10580 10586 10592 10598 10604 10609 10612 10612 10612 10612 10613 10613 10613 10617 10615 10611 10608 10604 10603 10601 10597 10594 10588 10585 10579
10489 10494 10491 10502 10508 10515 10515 10519 10524 10530 10539 10542 10543 10547 10556 10558 10561 10564 10567 10569 10574 10578 10581 10588 10590 10595 10591 10589 10590 10594 10599 10599 10596 10594 10593 10591 10589 10586 10583 10580 10576 10573 10569 10564
10490 10494 10498 10506 10510 10513 10515 10522 10523 10530 10533 10536 10536 10539 10543 10552 10554 10557 10557 10560 10561 10564 10568 10574 10578 10582 10579 10575 10576 10583 10582 10580 10580 10579 10578 10576 10573 10571 10568 10566 10563 10560 10556 10553
10490 10493 10497 10506 10518 10520 10504 10521 10521 10526 10530 10534 10532 10539 10543 10545 10542 10545 10548 10548 10551 10554 10558 10561 10566 10569 10570 10569 10571 10570 10569 10568 10568 10566 10565 10564 10561 10560 10558 10556 10553 10550 10544 10542
10485 10490 10497 10501 10509 10512 10511 10519 10520 10521 10524 10524 10529 10531 10531 10532 10532 10534 10537 10540 10543 10548 10551 10555 10558 10559 10560 10560 10560 10562 10561 10559 10559 10558 10556 10555 10553 10551 10548 10545 10541 10537 10532 10530
10477 10485 10492 10501 10504 10506 10509 10512 10518 10520 10518 10520 10522 10525 10528 10529 10532 10534 10535 10538 10541 10544 10547 10549 10551 10552 10553 10554 10555 10555 10554 10552 10552 10550 10548 10546 10543 10540 10538 10535 10530 10526 10520 10514
10470 10475 10488 10500 10493 10504 10506 10507 10510 10513 10516 10520 10522 10525 10527 10530 10532 10533 10536 10538 10540 10542 10544 10545 10546 10547 10547 10547 10547 10546 10545 10543 10542 10540 10539 10537 10535 10531 10527 10522 10516 10509 10503 10497